• In Österreich
  • Länderverzeichnis
  • Für 7 Tage
  • Wassertemperatur
  • Satellitenkarten
  • Wetterkarte
  • News
  • Widgets
  • user-avatar
    Anmelden

    Stündliche Wetter Solhan

    Heute, 27 Mai, Sonntag

    Zeit Temperatur Niederschläge Wind Luftdruck Luftfeuchtigkeit
    00:00 +14°C° 0 mm 1 m/S 636 mmHg 63%
    01:00 +13°C° 0 mm 1 m/S 636 mmHg 63%
    02:00 +13°C° 0 mm 1 m/S 636 mmHg 63%
    03:00 +13°C° 0 mm 1 m/S 636 mmHg 63%
    04:00 +14°C° 0 mm 2 m/S 636 mmHg 63%
    05:00 +14°C° 0 mm 2 m/S 636 mmHg 62%
    06:00 +15°C° 0 mm 2 m/S 637 mmHg 61%
    07:00 +17°C° 0 mm 2 m/S 638 mmHg 53%
    08:00 +19°C° 0 mm 2 m/S 638 mmHg 46%
    09:00 +23°C° 0 mm 2 m/S 639 mmHg 39%
    10:00 +24°C° 0 mm 2 m/S 640 mmHg 36%
    11:00 +25°C° 0 mm 3 m/S 640 mmHg 34%
    12:00 +26°C° 0 mm 3 m/S 640 mmHg 31%
    13:00 +26°C° 0 mm 3 m/S 640 mmHg 32%
    14:00 +26°C° 0 mm 4 m/S 640 mmHg 33%
    15:00 +26°C° 0 mm 4 m/S 640 mmHg 34%
    16:00 +25°C° 0 mm 4 m/S 639 mmHg 38%
    17:00 +24°C° 0 mm 3 m/S 639 mmHg 42%
    18:00 +24°C° 0 mm 2 m/S 639 mmHg 45%
    19:00 +20°C° 0 mm 2 m/S 638 mmHg 51%
    20:00 +19°C° 0 mm 1 m/S 638 mmHg 56%
    21:00 +15°C° 0 mm 1 m/S 637 mmHg 61%
    22:00 +15°C° 0 mm 1 m/S 637 mmHg 61%
    23:00 +15°C° 0 mm 2 m/S 637 mmHg 61%

    Morgen, 28 Mai, Montag

    Zeit Temperatur Niederschläge Wind Luftdruck Luftfeuchtigkeit
    00:00 +15°C° 0 mm 2 m/S 637 mmHg 61%
    01:00 +14°C° 0 mm 2 m/S 637 mmHg 62%
    02:00 +14°C° 0 mm 2 m/S 637 mmHg 62%
    03:00 +14°C° 0 mm 2 m/S 637 mmHg 63%
    04:00 +14°C° 0 mm 2 m/S 637 mmHg 63%
    05:00 +15°C° 0 mm 2 m/S 637 mmHg 63%
    06:00 +15°C° 0 mm 2 m/S 637 mmHg 64%
    07:00 +17°C° 0 mm 2 m/S 638 mmHg 57%
    08:00 +20°C° 0 mm 2 m/S 638 mmHg 50%
    09:00 +23°C° 0 mm 2 m/S 638 mmHg 44%
    10:00 +24°C° 0 mm 2 m/S 639 mmHg 40%
    11:00 +25°C° 0 mm 2 m/S 639 mmHg 36%
    12:00 +26°C° 0 mm 1 m/S 639 mmHg 33%
    13:00 +26°C° 0 mm 2 m/S 639 mmHg 33%
    14:00 +26°C° 0 mm 2 m/S 638 mmHg 34%
    15:00 +26°C° 0 mm 2 m/S 638 mmHg 35%
    16:00 +25°C° 0 mm 2 m/S 638 mmHg 41%
    17:00 +23°C° 0 mm 2 m/S 637 mmHg 48%
    18:00 +21°C° 0 mm 2 m/S 636 mmHg 55%
    19:00 +20°C° 0 mm 2 m/S 636 mmHg 59%
    20:00 +18°C° 0 mm 2 m/S 636 mmHg 64%
    21:00 +18°C° 0 mm 1 m/S 635 mmHg 68%
    22:00 +16°C° 0 mm 1 m/S 635 mmHg 68%
    23:00 +16°C° 0 mm 1 m/S 635 mmHg 67%

    übermorgen, 29 Mai, Dienstag

    Zeit Temperatur Niederschläge Wind Luftdruck Luftfeuchtigkeit
    00:00 +16°C° 0 mm 1 m/S 635 mmHg 67%
    01:00 +15°C° 0 mm 1 m/S 634 mmHg 67%
    02:00 +15°C° 0 mm 1 m/S 634 mmHg 67%
    03:00 +15°C° 0 mm 1 m/S 634 mmHg 67%
    04:00 +15°C° 0 mm 1 m/S 634 mmHg 66%
    05:00 +16°C° 0 mm 1 m/S 634 mmHg 65%
    06:00 +16°C° 0 mm 2 m/S 634 mmHg 64%
    07:00 +18°C° 0 mm 2 m/S 634 mmHg 58%
    08:00 +20°C° 0 mm 2 m/S 635 mmHg 51%
    09:00 +23°C° 0 mm 2 m/S 635 mmHg 44%
    10:00 +22°C° 0,3 mm 3 m/S 635 mmHg 46%
    11:00 +22°C° 0,3 mm 3 m/S 635 mmHg 47%
    12:00 +22°C° 0,3 mm 4 m/S 635 mmHg 48%
    13:00 +22°C° 0,4 mm 4 m/S 635 mmHg 47%
    14:00 +23°C° 0,4 mm 4 m/S 635 mmHg 45%
    15:00 +23°C° 0,4 mm 4 m/S 635 mmHg 44%
    16:00 +22°C° 0,2 mm 4 m/S 635 mmHg 46%
    17:00 +22°C° 0,2 mm 4 m/S 634 mmHg 48%
    18:00 +21°C° 0,2 mm 3 m/S 634 mmHg 51%
    19:00 +19°C° 0,1 mm 3 m/S 634 mmHg 57%
    20:00 +17°C° 0,1 mm 2 m/S 633 mmHg 63%
    21:00 +15°C° 0,1 mm 1 m/S 632 mmHg 70%
    22:00 +14°C° 0 mm 1 m/S 632 mmHg 72%
    23:00 +14°C° 0 mm 1 m/S 632 mmHg 74%

    30 Mai, Mittwoch

    Zeit Temperatur Niederschläge Wind Luftdruck Luftfeuchtigkeit
    00:00 +13°C° 0 mm 1 m/S 632 mmHg 76%
    01:00 +13°C° 0 mm 1 m/S 632 mmHg 75%
    02:00 +13°C° 0 mm 1 m/S 632 mmHg 75%
    03:00 +13°C° 0 mm 1 m/S 631 mmHg 75%
    04:00 +13°C° 0,1 mm 1 m/S 632 mmHg 73%
    05:00 +14°C° 0,1 mm 1 m/S 632 mmHg 71%
    06:00 +15°C° 0,1 mm 2 m/S 632 mmHg 70%
    07:00 +17°C° 0 mm 2 m/S 633 mmHg 62%
    08:00 +19°C° 0 mm 2 m/S 634 mmHg 54%
    09:00 +21°C° 0 mm 2 m/S 634 mmHg 46%
    10:00 +22°C° 0,1 mm 3 m/S 635 mmHg 43%
    11:00 +24°C° 0,1 mm 3 m/S 635 mmHg 39%
    12:00 +25°C° 0,1 mm 4 m/S 635 mmHg 36%
    13:00 +26°C° 0 mm 4 m/S 635 mmHg 36%
    14:00 +26°C° 0 mm 4 m/S 635 mmHg 35%
    15:00 +26°C° 0 mm 5 m/S 635 mmHg 35%
    16:00 +23°C° 0,6 mm 4 m/S 634 mmHg 46%
    17:00 +21°C° 0,6 mm 3 m/S 634 mmHg 57%
    18:00 +18°C° 0,6 mm 2 m/S 633 mmHg 69%
    19:00 +17°C° 2 mm 2 m/S 633 mmHg 74%
    20:00 +16°C° 2 mm 2 m/S 633 mmHg 79%
    21:00 +14°C° 2 mm 2 m/S 632 mmHg 85%
    22:00 +14°C° 0,1 mm 2 m/S 632 mmHg 84%
    23:00 +13°C° 0,1 mm 2 m/S 632 mmHg 83%

    31 Mai, Donnerstag

    Zeit Temperatur Niederschläge Wind Luftdruck Luftfeuchtigkeit
    00:00 +13°C° 0,1 mm 2 m/S 631 mmHg 83%
    01:00 +12°C° 0 mm 2 m/S 631 mmHg 82%
    02:00 +12°C° 0 mm 2 m/S 631 mmHg 81%
    03:00 +12°C° 0 mm 2 m/S 630 mmHg 81%
    04:00 +12°C° 0 mm 2 m/S 630 mmHg 80%
    05:00 +13°C° 0 mm 1 m/S 631 mmHg 79%
    06:00 +13°C° 0 mm 1 m/S 631 mmHg 78%
    07:00 +16°C° 0 mm 1 m/S 632 mmHg 70%
    08:00 +18°C° 0 mm 2 m/S 632 mmHg 61%
    09:00 +20°C° 0 mm 2 m/S 633 mmHg 53%
    10:00 +21°C° 0 mm 3 m/S 633 mmHg 49%
    11:00 +22°C° 0 mm 4 m/S 633 mmHg 44%
    12:00 +23°C° 0 mm 5 m/S 633 mmHg 40%
    13:00 +23°C° 0 mm 6 m/S 633 mmHg 41%
    14:00 +23°C° 0 mm 7 m/S 633 mmHg 42%
    15:00 +23°C° 0 mm 7 m/S 633 mmHg 43%
    16:00 +22°C° 0,3 mm 7 m/S 633 mmHg 46%
    17:00 +21°C° 0,3 mm 6 m/S 633 mmHg 50%
    18:00 +20°C° 0,3 mm 5 m/S 632 mmHg 54%
    19:00 +18°C° 0,5 mm 4 m/S 632 mmHg 61%
    20:00 +16°C° 0,5 mm 3 m/S 632 mmHg 67%
    21:00 +14°C° 0,5 mm 2 m/S 632 mmHg 74%
    22:00 +14°C° 0,1 mm 2 m/S 632 mmHg 76%
    23:00 +14°C° 0,1 mm 1 m/S 632 mmHg 78%

    1 Juni, Freitag

    Zeit Temperatur Niederschläge Wind Luftdruck Luftfeuchtigkeit
    00:00 +13°C° 0,1 mm 1 m/S 632 mmHg 80%
    01:00 +13°C° 0 mm 1 m/S 631 mmHg 81%
    02:00 +12°C° 0 mm 1 m/S 631 mmHg 82%
    03:00 +12°C° 0 mm 1 m/S 631 mmHg 84%
    04:00 +12°C° 0 mm 1 m/S 631 mmHg 82%
    05:00 +13°C° 0 mm 1 m/S 631 mmHg 81%
    06:00 +13°C° 0 mm 1 m/S 632 mmHg 80%
    07:00 +15°C° 0 mm 1 m/S 632 mmHg 72%
    08:00 +17°C° 0 mm 2 m/S 633 mmHg 63%
    09:00 +19°C° 0 mm 2 m/S 633 mmHg 55%
    10:00 +20°C° 0 mm 3 m/S 633 mmHg 51%
    11:00 +21°C° 0 mm 4 m/S 634 mmHg 48%
    12:00 +22°C° 0 mm 4 m/S 634 mmHg 44%
    13:00 +22°C° 0,2 mm 5 m/S 633 mmHg 44%
    14:00 +22°C° 0,2 mm 6 m/S 633 mmHg 44%
    15:00 +22°C° 0,2 mm 6 m/S 633 mmHg 44%
    16:00 +22°C° 0,2 mm 6 m/S 633 mmHg 47%
    17:00 +21°C° 0,2 mm 6 m/S 633 mmHg 50%
    18:00 +20°C° 0,2 mm 5 m/S 633 mmHg 53%
    19:00 +18°C° 0,1 mm 4 m/S 632 mmHg 58%
    20:00 +17°C° 0,1 mm 3 m/S 632 mmHg 64%
    21:00 +15°C° 0,1 mm 2 m/S 632 mmHg 69%
    22:00 +14°C° 0,1 mm 2 m/S 632 mmHg 71%
    23:00 +14°C° 0,1 mm 2 m/S 632 mmHg 72%
    Mehr zeigen